Regional Weather Roundup
Issued by NWS

Home | Current Version | Previous Version | Graphics & Text | Print | Product List | Glossary On
Versions: 1 2 3 4 5 6 7 8 9 10 11 12 13 14 15 16 17 18 19 20 21 22 23 24 25 26 27 28 29 30 31 32 33 34 35 36 37 38 39 40 41 42 43 44 45 46 47 48 49 50
000
ASUS43 KLMK 250602
RWRKY
KENTUCKY REGIONAL WEATHER ROUNDUP
NATIONAL WEATHER SERVICE LOUISVILLE KY
200 AM EDT SAT OCT 25 2014

NOTE "FAIR" INDICATES FEW OR NO CLOUDS BELOW 12,000 FEET
WITH NO SIGNIFICANT WEATHER AND/OR OBSTRUCTIONS TO VISIBILITY.

KYZ001>023-026-027-061>063-070>075-250700-
WESTERN AND SOUTH CENTRAL KENTUCKY

CITY           SKY/WX    TMP DP  RH WIND       PRES   REMARKS
PADUCAH        CLEAR     56  52  86 S5        30.04F
HENDERSON      MOCLDY   N/A N/A N/A S3        30.05R
OWENSBORO      PTCLDY    52  50  93 CALM      30.05F
HOPKINSVILLE   CLEAR     50  50 100 SW1       30.08S
BOWLING GREEN  CLEAR     47  44  90 CALM      30.08S FOG
GLASGOW        NOT AVBL
$$

KYZ024-025-028>034-038-045-046-053-250700-
NORTH CENTRAL KENTUCKY

CITY           SKY/WX    TMP DP  RH WIND       PRES   REMARKS
LOUISVILLE/SDF PTCLDY    49  46  90 SE10      30.05F
LOUISVILLE/LOU CLEAR     48  46  93 CALM      30.05F FOG
FORT KNOX      CLEAR     46  45  96 CALM      30.05S
$$

KYZ035>037-039>044-047>052-055>060-089>105-250700-
NORTHEAST KENTUCKY

CITY           SKY/WX    TMP DP  RH WIND       PRES   REMARKS
LEXINGTON      CLEAR     47  40  76 S5        30.06F
COVINGTON      MOCLDY    50  42  74 CALM      30.03F
FRANKFORT      CLEAR     43  40  89 CALM      30.05S
$$

KYZ054-064>069-076>088-106>120-250700-
SOUTHEAST KENTUCKY

CITY           SKY/WX    TMP DP  RH WIND       PRES   REMARKS
JACKSON        CLEAR     47  40  76 CALM      30.07F
LONDON         PTCLDY    43  39  86 CALM      30.09S
SOMERSET       CLEAR     41  41 100 CALM      30.10S
MIDDLESBORO    CLEAR     39  39  98 CALM      30.11S
MONTICELLO     CLEAR     41  40  96 CALM      30.11R FOG
$$




USA.gov is the U.S. government's official web portal to all federal, state and local government web resources and services.